Home > Weather > Kallithea > Past weeks

Flag for Greece Past Weather in Kallithea, Greece — Yesterday and Last 2 Weeks

Now
75 °F

Passing clouds.


Feels Like: 77 °F
Forecast: 61 / 84 °F
Wind: No wind

Location: Elefsis Airport

Current Time: May 28, 2016 at 8:58:19 AM

Latest Report: May 28, 2016 at 8:20 AM


Visibility: N/A

Pressure: 30.01 "Hg

Humidity: 36%

Dew Point: 46 °F

Location of KallitheaLocation

Past Weather in Kallithea — Graph

°F

Kallithea Temperature Yesterday

Maximum temperature yesterday: 88 °F (at 2:50 PM)
Minimum temperature yesterday: 61 °F (at 5:50 AM)
Average temperature yesterday: 75 °F

High & Low Weather Summary for the Past Weeks

 TemperatureHumidityPressure
High88 °F (May 13, 2:20 PM)100% (May 27, 2:50 PM)30.04 "Hg (May 27, 2:50 PM)
Low54 °F (May 23, 3:50 AM)15% (May 24, 11:50 PM)29.65 "Hg (May 13, 7:20 AM)
Average70 °F47%29.88 "Hg
* Reported May 13 7:20 AM — May 28 7:20 AM, Kallithea, Weather by CustomWeather, © 2016

Note: Actual official high and low records may vary slightly from our data, if they occured in-between our weather recording intervals... More about our weather records

Advertising

Kallithea Weather History for the Previous 24 Hours

Scroll right to see more
 ConditionsComfort  
Time TempWeatherWind HumidityBarometerVisibility
7:20 AM
Sat, May 28
66 °FPassing clouds.3 mph52%30.01 "HgN/A
6:50 AM63 °FPassing clouds.No wind56%30.01 "HgN/A
6:20 AM61 °FPassing clouds.3 mph59%30.01 "HgN/A
5:50 AM61 °FPassing clouds.3 mph63%30.01 "HgN/A
5:20 AM61 °FPassing clouds.5 mph63%30.01 "HgN/A
4:50 AM63 °FPassing clouds.5 mph59%29.98 "HgN/A
4:20 AM63 °FPassing clouds.No wind59%29.98 "HgN/A
3:50 AM63 °FPassing clouds.5 mph59%29.98 "HgN/A
3:20 AM63 °FPassing clouds.5 mph59%29.98 "HgN/A
2:50 AM63 °FPassing clouds.6 mph59%29.98 "HgN/A
2:20 AM64 °FPassing clouds.3 mph56%29.98 "HgN/A
1:50 AM64 °FPassing clouds.5 mph56%29.98 "HgN/A
1:20 AM66 °FPassing clouds.3 mph52%30.01 "HgN/A
12:50 AM66 °FPassing clouds.3 mph52%30.01 "HgN/A
12:20 AM66 °FPassing clouds.5 mph56%30.01 "HgN/A
11:50 PM
Fri, May 27
68 °FPassing clouds.5 mph53%30.01 "HgN/A
11:20 PM66 °FPassing clouds.3 mph60%30.01 "HgN/A
10:50 PM70 °FPassing clouds.3 mph53%30.01 "HgN/A
10:20 PM72 °FPassing clouds.3 mph50%30.01 "HgN/A
9:50 PM72 °FPassing clouds.3 mph50%29.98 "HgN/A
9:20 PM72 °FPassing clouds.5 mph50%29.98 "HgN/A
8:50 PM73 °FPassing clouds.5 mph44%29.98 "HgN/A
8:20 PM75 °FPassing clouds.7 mph41%29.98 "HgN/A
7:50 PM75 °FPassing clouds.9 mph41%29.98 "HgN/A
7:20 PM77 °FPassing clouds.13 mph42%29.95 "HgN/A
6:50 PM79 °FPassing clouds.13 mph39%29.95 "HgN/A
6:20 PM79 °FPassing clouds.8 mph39%29.95 "HgN/A
5:50 PM84 °FPassing clouds.7 mph29%29.95 "HgN/A
5:20 PM86 °FPassing clouds.7 mph20%29.95 "HgN/A
4:50 PM88 °FPassing clouds.10 mph18%29.95 "HgN/A
4:20 PM88 °FPassing clouds.7 mph16%29.95 "HgN/A
3:50 PM88 °FPassing clouds.10 mph17%29.95 "HgN/A
3:20 PM88 °FPassing clouds.12 mph17%29.95 "HgN/A
2:50 PM88 °FPassing clouds.12 mph100%29.95 "HgN/A
2:20 PM86 °FPassing clouds.12 mph19%29.95 "HgN/A
1:20 PM84 °FPassing clouds.12 mph19%29.95 "HgN/A
12:50 PM84 °FPassing clouds.12 mph20%29.98 "HgN/A
12:20 PM84 °FPassing clouds.12 mph22%29.98 "HgN/A
11:50 AM84 °FPassing clouds.12 mph23%29.98 "HgN/A
11:20 AM82 °FPassing clouds.12 mph23%29.98 "HgN/A
10:50 AM82 °FPassing clouds.7 mph25%29.98 "HgN/A
10:20 AM81 °FPassing clouds.7 mph28%29.98 "HgN/A
9:50 AM79 °FSunny.No wind28%29.98 "Hg10 mi
9:20 AM79 °FSunny.No wind28%29.98 "Hg10 mi
8:50 AM77 °FSunny.No wind32%29.95 "Hg10 mi
8:20 AM73 °FSunny.No wind38%29.95 "Hg10 mi
Weather by CustomWeather, © 2016

See weather overviewHow to use our weather pages